Location: Unspecified
(0.0000°N, 0.0000°E)
Time: 08:15:04
(UTC+01:00)

Iridium 19 - Visible Passes

Search period start: 17 January 2018 00:00
Search period end: 27 January 2018 00:00
Orbit: 221 x 616 km, 86.4° (Epoch: 15 January)

Date Brightness Start Highest point End Pass type
(mag) Time Alt. Az. Time Alt. Az. Time Alt. Az.
17 Jan 6.3 19:39:05 10° NNE 19:42:53 31° E 19:46:45 10° SSE visible
17 Jan 8.8 21:15:03 10° W 21:15:50 10° W 21:16:38 10° W visible
18 Jan 6.9 20:25:55 10° NNW 20:29:56 40° W 20:34:01 10° SSW visible
19 Jan 5.8 19:39:30 10° NNE 19:43:40 48° E 19:47:50 10° SSE visible
20 Jan 7.7 20:26:12 10° NNW 20:29:49 27° W 20:33:27 10° SSW visible
21 Jan 5.4 19:38:25 10° N 19:42:42 71° E 19:46:57 10° S visible
22 Jan 8.3 20:24:54 10° NW 20:27:57 19° W 20:30:58 10° SW visible
23 Jan 5.6 19:35:44 10° N 19:40:01 82° W 19:44:11 10° S visible
24 Jan 8.6 20:22:06 10° WNW 20:24:20 14° W 20:26:32 10° WSW visible
25 Jan 6.0 19:31:24 10° N 19:35:35 62° W 19:39:36 10° S visible
26 Jan 8.9 20:18:01 10° WNW 20:18:57 11° W 20:19:54 10° WSW visible
